| time (UTC) | temp F | wind direction | speed knots | gust knots | rain 1hr in | rain 24hr in | rain mn in | humidity % | barometer mb |
| 20260507014033 | 74 | 257 | 7.8 | 10.4 | 0.00 | 0.01 | 0.01 | 51 | 1012.0 |
| 20260507013034 | 74 | 264 | 2.6 | 7.8 | 0.00 | 0.01 | 0.01 | 50 | 1011.9 |
| 20260507012033 | 74 | 281 | 2.6 | 7.8 | 0.00 | 0.01 | 0.01 | 49 | 1011.8 |
| 20260507011034 | 74 | 269 | 0.0 | 6.1 | 0.00 | 0.01 | 0.01 | 49 | 1011.7 |
| 20260507010033 | 74 | 319 | 0.0 | 10.4 | 0.00 | 0.01 | 0.01 | 49 | 1011.7 |
| 20260507005033 | 74 | 277 | 3.5 | 10.4 | 0.00 | 0.01 | 0.01 | 49 | 1011.6 |
| 20260507004035 | 74 | 275 | 1.7 | 10.4 | 0.00 | 0.01 | 0.01 | 50 | 1011.5 |
| 20260507003034 | 74 | 215 | 1.7 | 8.7 | 0.00 | 0.01 | 0.01 | 49 | 1011.6 |
| 20260507002034 | 74 | 248 | 6.1 | 8.7 | 0.00 | 0.01 | 0.01 | 50 | 1011.5 |
| 20260507001034 | 74 | 263 | 0.9 | 6.1 | 0.00 | 0.01 | 0.01 | 49 | 1011.5 |
| 20260507000033 | 74 | 283 | 2.6 | 7.0 | 0.00 | 0.01 | 0.01 | 48 | 1011.5 |
| 20260506235034 | 74 | 329 | 0.0 | 4.3 | 0.00 | 0.01 | 0.01 | 47 | 1011.4 |
| 20260506234034 | 74 | 254 | 0.9 | 3.5 | 0.00 | 0.01 | 0.01 | 48 | 1011.5 |
| 20260506233033 | 74 | 330 | 0.0 | 8.7 | 0.00 | 0.01 | 0.01 | 47 | 1011.5 |
| 20260506232034 | 74 | 273 | 0.0 | 8.7 | 0.00 | 0.01 | 0.01 | 47 | 1011.6 |
| 20260506231034 | 74 | 254 | 2.6 | 5.2 | 0.00 | 0.01 | 0.01 | 48 | 1011.8 |
| 20260506230034 | 74 | 250 | 3.5 | 8.7 | 0.00 | 0.01 | 0.01 | 48 | 1011.8 |
| 20260506225034 | 73 | 290 | 0.0 | 8.7 | 0.00 | 0.01 | 0.01 | 47 | 1011.8 |
| 20260506224034 | 73 | 281 | 1.7 | 8.7 | 0.00 | 0.01 | 0.01 | 49 | 1011.9 |
| 20260506223034 | 73 | 278 | 0.0 | 7.8 | 0.00 | 0.01 | 0.01 | 49 | 1012.2 |
| 20260506222034 | 73 | 252 | 3.5 | 7.8 | 0.00 | 0.01 | 0.01 | 50 | 1012.2 |
| 20260506220134 | 73 | 332 | 0.0 | 6.1 | 0.00 | 0.01 | 0.01 | 48 | 1012.4 |
| 20260506215034 | 72 | 336 | 0.0 | 6.1 | 0.00 | 0.01 | 0.01 | 48 | 1012.5 |
| 20260506214034 | 72 | 316 | 0.9 | 6.1 | 0.00 | 0.01 | 0.01 | 48 | 1012.6 |
| 20260506213034 | 72 | 275 | 2.6 | 7.8 | 0.00 | 0.01 | 0.01 | 49 | 1012.7 |
| 20260506212034 | 72 | 326 | 0.0 | 7.8 | 0.00 | 0.01 | 0.01 | 49 | 1012.9 |
| 20260506211034 | 72 | 269 | 3.5 | 7.8 | 0.00 | 0.01 | 0.01 | 50 | 1013.1 |
| 20260506210034 | 71 | 262 | 5.2 | 8.7 | 0.00 | 0.01 | 0.01 | 49 | 1013.1 |
| 20260506205034 | 70 | 284 | 0.0 | 7.0 | 0.00 | 0.01 | 0.01 | 51 | 1013.2 |
| 20260506204034 | 71 | 283 | 0.0 | 5.2 | 0.00 | 0.01 | 0.01 | 50 | 1013.2 |
| 20260506203034 | 71 | 274 | 2.6 | 6.1 | 0.00 | 0.01 | 0.01 | 54 | 1013.4 |
| 20260506202034 | 69 | 257 | 0.0 | 5.2 | 0.00 | 0.01 | 0.01 | 53 | 1013.5 |
| 20260506200034 | 68 | 340 | 0.0 | 8.7 | 0.00 | 0.01 | 0.01 | 54 | 1013.7 |
| 20260506195034 | 67 | 298 | 0.0 | 5.2 | 0.00 | 0.01 | 0.01 | 54 | 1013.9 |
| 20260506194034 | 67 | 311 | 2.6 | 5.2 | 0.00 | 0.01 | 0.01 | 54 | 1013.9 |
| 20260506193034 | 68 | 296 | 0.0 | 8.7 | 0.00 | 0.01 | 0.01 | 56 | 1014.0 |
| 20260506192034 | 66 | 269 | 0.0 | 6.1 | 0.00 | 0.01 | 0.01 | 56 | 1014.3 |
| 20260506191034 | 67 | 254 | 2.6 | 6.1 | 0.00 | 0.01 | 0.01 | 57 | 1014.4 |
| 20260506190034 | 67 | 216 | 0.0 | 3.5 | 0.00 | 0.01 | 0.01 | 57 | 1014.5 |
| 20260506185034 | 65 | 280 | 0.0 | 3.5 | 0.00 | 0.01 | 0.01 | 57 | 1014.5 |
| 20260506184034 | 65 | 295 | 0.0 | 2.6 | 0.00 | 0.01 | 0.01 | 58 | 1014.8 |
| 20260506183034 | 64 | 327 | 0.0 | 4.3 | 0.00 | 0.01 | 0.01 | 60 | 1014.9 |
| 20260506182034 | 64 | 335 | 0.0 | 4.3 | 0.00 | 0.01 | 0.01 | 59 | 1014.9 |
| 20260506180034 | 63 | 323 | 0.0 | 6.1 | 0.00 | 0.01 | 0.01 | 61 | 1015.1 |
| 20260506174034 | 62 | 296 | 0.0 | 6.1 | 0.00 | 0.01 | 0.01 | 63 | 1015.1 |
| 20260506173034 | 62 | 9 | 0.0 | 4.3 | 0.00 | 0.01 | 0.01 | 63 | 1015.2 |
| 20260506172034 | 61 | 278 | 0.0 | 4.3 | 0.00 | 0.01 | 0.01 | 65 | 1015.3 |
| 20260506171034 | 60 | 260 | 0.0 | 1.7 | 0.00 | 0.01 | 0.01 | 64 | 1015.3 |
| 20260506170034 | 60 | 250 | 0.0 | 3.5 | 0.01 | 0.01 | 0.01 | 64 | 1015.3 |
| 20260506165034 | 59 | 246 | 0.0 | 0.9 | 0.01 | 0.01 | 0.01 | 63 | 1015.4 |
| 20260506164134 | 58 | 256 | 0.0 | 0.9 | 0.01 | 0.01 | 0.01 | 64 | 1015.4 |
| 20260506163034 | 58 | 255 | 0.0 | 3.5 | 0.01 | 0.01 | 0.01 | 68 | 1015.4 |
| 20260506162034 | 57 | 255 | 0.0 | 3.5 | 0.01 | 0.01 | 0.01 | 74 | 1015.3 |
| 20260506161034 | 56 | 255 | 0.0 | 3.5 | 0.01 | 0.01 | 0.01 | 80 | 1015.4 |
| 20260506160034 | 56 | 255 | 0.0 | 2.6 | 0.01 | 0.01 | 0.01 | 85 | 1015.3 |
| 20260506155034 | 55 | 227 | 0.0 | 0.0 | 0.01 | 0.01 | 0.01 | 85 | 1015.3 |
| 20260506154034 | 55 | 227 | 0.0 | 0.0 | 0.00 | 0.00 | 0.00 | 86 | 1015.1 |
| 20260506153034 | 54 | 227 | 0.0 | 0.0 | 0.00 | 0.00 | 0.00 | 87 | 1015.1 |
| 20260506152034 | 53 | 227 | 0.0 | 0.0 | 0.00 | 0.00 | 0.00 | 87 | 1015.2 |
| 20260506150034 | 52 | 227 | 0.0 | 0.0 | 0.00 | 0.00 | 0.00 | 86 | 1015.4 |
| 20260506145034 | 51 | 227 | 0.0 | 0.0 | 0.00 | 0.00 | 0.00 | 86 | 1015.3 |
| 20260506144034 | 50 | 227 | 0.0 | 0.0 | 0.00 | 0.00 | 0.00 | 86 | 1015.4 |
| 20260506143034 | 50 | 227 | 0.0 | 0.0 | 0.00 | 0.00 | 0.00 | 85 | 1015.3 |
| 20260506142034 | 49 | 227 | 0.0 | 0.0 | 0.00 | 0.00 | 0.00 | 85 | 1015.3 |
| 20260506141034 | 49 | 227 | 0.0 | 0.0 | 0.00 | 0.00 | 0.00 | 85 | 1015.3 |
| 20260506140034 | 49 | 227 | 0.0 | 0.0 | 0.00 | 0.02 | 0.00 | 85 | 1015.2 |
| 20260506135034 | 48 | 268 | 0.0 | 0.0 | 0.00 | 0.02 | 0.00 | 84 | 1015.1 |
| 20260506134034 | 48 | 268 | 0.0 | 0.0 | 0.00 | 0.02 | 0.00 | 84 | 1014.8 |
| 20260506133034 | 48 | 268 | 0.0 | 0.0 | 0.00 | 0.08 | 0.00 | 83 | 1014.7 |
| 20260506132034 | 48 | 268 | 0.0 | 0.0 | 0.00 | 0.08 | 0.00 | 83 | 1014.5 |
| 20260506130034 | 48 | 268 | 0.0 | 0.0 | 0.00 | 0.08 | 0.00 | 82 | 1014.3 |
| 20260506125034 | 48 | 268 | 0.0 | 0.0 | 0.00 | 0.08 | 0.00 | 83 | 1014.3 |
| 20260506124034 | 48 | 268 | 0.0 | 0.0 | 0.00 | 0.08 | 0.00 | 82 | 1014.2 |
| 20260506122034 | 48 | 268 | 0.0 | 0.0 | 0.00 | 0.08 | 0.00 | 82 | 1014.0 |
| 20260506121034 | 49 | 268 | 0.0 | 0.0 | 0.00 | 0.08 | 0.00 | 82 | 1014.0 |
| 20260506120104 | 49 | 268 | 0.0 | 0.0 | 0.00 | 0.08 | 0.00 | 81 | 1014.0 |
| 20260506115034 | 49 | 268 | 0.0 | 0.0 | 0.00 | 0.08 | 0.00 | 81 | 1014.0 |
| 20260506114034 | 49 | 268 | 0.0 | 0.0 | 0.00 | 0.08 | 0.00 | 81 | 1013.9 |
| 20260506112034 | 50 | 268 | 0.0 | 0.0 | 0.00 | 0.08 | 0.00 | 80 | 1013.9 |
| 20260506111034 | 50 | 268 | 0.0 | 0.0 | 0.00 | 0.08 | 0.00 | 80 | 1013.9 |
| 20260506110034 | 50 | 268 | 0.0 | 0.0 | 0.00 | 0.08 | 0.00 | 80 | 1013.9 |
| 20260506105034 | 50 | 268 | 0.0 | 0.0 | 0.00 | 0.08 | 0.00 | 79 | 1013.9 |
| 20260506104104 | 50 | 268 | 0.0 | 0.0 | 0.00 | 0.08 | 0.00 | 79 | 1013.9 |
| 20260506103034 | 51 | 268 | 0.0 | 0.0 | 0.00 | 0.08 | 0.00 | 79 | 1013.9 |
| 20260506102034 | 51 | 268 | 0.0 | 0.0 | 0.00 | 0.08 | 0.00 | 78 | 1013.9 |
| 20260506101034 | 51 | 268 | 0.0 | 0.0 | 0.00 | 0.08 | 0.00 | 78 | 1013.9 |
| 20260506100035 | 51 | 268 | 0.0 | 0.0 | 0.00 | 0.08 | 0.00 | 77 | 1014.0 |
| 20260506094035 | 52 | 268 | 0.0 | 0.0 | 0.00 | 0.08 | 0.00 | 76 | 1014.0 |
| 20260506093034 | 52 | 268 | 0.0 | 0.0 | 0.00 | 0.08 | 0.00 | 75 | 1014.0 |
| 20260506092034 | 52 | 268 | 0.0 | 0.0 | 0.00 | 0.08 | 0.00 | 75 | 1014.0 |
| 20260506091034 | 53 | 268 | 0.0 | 0.0 | 0.00 | 0.08 | 0.00 | 74 | 1014.0 |
| 20260506090035 | 53 | 268 | 0.0 | 0.0 | 0.00 | 0.08 | 0.00 | 73 | 1014.1 |
| 20260506085035 | 53 | 268 | 0.0 | 0.0 | 0.00 | 0.08 | 0.00 | 72 | 1014.3 |
| 20260506084034 | 54 | 268 | 0.0 | 0.0 | 0.00 | 0.08 | 0.00 | 71 | 1014.4 |
| 20260506083035 | 54 | 268 | 0.0 | 0.0 | 0.00 | 0.11 | 0.00 | 70 | 1014.4 |
| 20260506082034 | 54 | 268 | 0.0 | 0.0 | 0.00 | 0.11 | 0.00 | 69 | 1014.2 |
| 20260506073034 | 56 | 268 | 0.0 | 0.0 | 0.00 | 0.12 | 0.00 | 68 | 1014.6 |
| 20260506072035 | 57 | 268 | 0.0 | 0.0 | 0.00 | 0.12 | 0.00 | 68 | 1014.6 |
| 20260506071034 | 57 | 268 | 0.0 | 0.0 | 0.00 | 0.12 | 0.00 | 68 | 1014.7 |
| 20260506062035 | 57 | 257 | 0.0 | 0.9 | 0.00 | 0.12 | 0.12 | 67 | 1014.1 |
| 20260506051035 | 58 | 249 | 0.0 | 4.3 | 0.00 | 0.12 | 0.12 | 65 | 1013.6 |
| 20260506045035 | 58 | 236 | 0.0 | 4.3 | 0.00 | 0.12 | 0.12 | 65 | 1013.1 |
| 20260506044034 | 58 | 257 | 0.0 | 4.3 | 0.00 | 0.12 | 0.12 | 64 | 1013.0 |
| 20260506042035 | 59 | 265 | 0.0 | 5.2 | 0.00 | 0.12 | 0.12 | 63 | 1012.9 |
| 20260506041035 | 59 | 248 | 2.6 | 4.3 | 0.00 | 0.12 | 0.12 | 63 | 1012.8 |
| 20260506040035 | 59 | 252 | 2.6 | 7.8 | 0.00 | 0.12 | 0.12 | 63 | 1012.7 |
| 20260506035035 | 59 | 244 | 3.5 | 7.0 | 0.00 | 0.12 | 0.12 | 62 | 1012.5 |
| 20260506034035 | 59 | 263 | 5.2 | 6.1 | 0.00 | 0.12 | 0.12 | 62 | 1012.2 |
| 20260506032035 | 60 | 242 | 0.0 | 6.1 | 0.00 | 0.12 | 0.12 | 61 | 1012.1 |
| 20260506031035 | 60 | 249 | 0.0 | 5.2 | 0.00 | 0.12 | 0.12 | 61 | 1011.8 |
| 20260506030105 | 60 | 257 | 1.7 | 7.0 | 0.00 | 0.12 | 0.12 | 61 | 1011.7 |
| 20260506024135 | 60 | 254 | 2.6 | 7.0 | 0.00 | 0.12 | 0.12 | 60 | 1011.3 |
| 20260506023035 | 60 | 237 | 3.5 | 7.8 | 0.00 | 0.12 | 0.12 | 60 | 1011.3 |
| 20260506022035 | 61 | 254 | 3.5 | 7.8 | 0.00 | 0.12 | 0.12 | 59 | 1011.1 |
| 20260506021035 | 61 | 270 | 2.6 | 7.8 | 0.00 | 0.12 | 0.12 | 59 | 1011.1 |
| 20260506020035 | 61 | 278 | 0.0 | 9.6 | 0.00 | 0.12 | 0.12 | 59 | 1010.9 |